EW5922 Weather Reports


time (UTC)temp
C
wind
direction
speed
KPH
gust
KPH
rain 1hr
cm
rain 24hr
cm
rain mn
cm
humidity
%
barometer
mb
20260505184420 30 79 3.2 12.9 0.00 0.00 0.00 36 1009.3
20260505183916 30 248 6.4 11.3 0.00 0.00 0.00 37 1009.2
20260505183416 30 245 1.6 11.3 0.00 0.00 0.00 38 1009.3
20260505182916 30 187 1.6 11.3 0.00 0.00 0.00 38 1009.3
20260505182417 30 229 3.2 12.9 0.00 0.00 0.00 39 1009.4
20260505181916 30 190 4.8 12.9 0.00 0.00 0.00 38 1009.2
20260505181417 30 149 1.6 14.5 0.00 0.00 0.00 38 1009.3
20260505180916 29 197 3.2 16.1 0.00 0.00 0.00 37 1009.3
20260505180416 29 301 1.6 16.1 0.00 0.00 0.00 39 1009.5
20260505175916 29 230 3.2 17.7 0.00 0.00 0.00 40 1009.6
20260505175416 28 293 1.6 17.7 0.00 0.00 0.00 41 1009.7
20260505174916 29 103 3.2 16.1 0.00 0.00 0.00 40 1009.8
20260505174417 29 314 3.2 9.7 0.00 0.00 0.00 40 1009.5
20260505173917 29 49 1.6 9.7 0.00 0.00 0.00 41 1009.6
20260505173416 28 235 1.6 9.7 0.00 0.00 0.00 41 1009.6
20260505172916 28 252 6.4 9.7 0.00 0.00 0.00 42 1010.0
20260505172416 28 249 1.6 11.3 0.00 0.00 0.00 43 1010.0
20260505171916 28 167 3.2 11.3 0.00 0.00 0.00 41 1010.0
20260505171416 28 218 4.8 16.1 0.00 0.00 0.00 42 1010.2
20260505170916 28 281 3.2 16.1 0.00 0.00 0.00 45 1010.1
20260505170416 28 230 0.0 14.5 0.00 0.00 0.00 43 1009.9
20260505165905 28 281 1.6 14.5 0.00 0.00 0.00 43 1010.2
20260505165404 28 130 3.2 14.5 0.00 0.00 0.00 45 1010.1
20260505164905 28 287 0.0 9.7 0.00 0.00 0.00 44 1010.1
20260505163853 28 262 0.0 4.8 0.00 0.00 0.00 45 1010.3
20260505163352 28 99 4.8 11.3 0.00 0.00 0.00 43 1010.3
20260505162840 28 238 1.6 11.3 0.00 0.00 0.00 44 1010.2
20260505162340 27 203 3.2 12.9 0.00 0.00 0.00 44 1010.4
20260505161328 27 113 3.2 9.7 0.00 0.00 0.00 45 1010.5
20260505160828 27 258 0.0 9.7 0.00 0.00 0.00 47 1010.6
20260505160329 27 170 1.6 9.7 0.00 0.00 0.00 44 1010.8
20260505153316 27 210 1.6 12.9 0.00 0.00 0.00 47 1011.1
20260505152305 26 231 4.8 12.9 0.00 0.00 0.00 47 1010.9
20260505151305 26 272 4.8 9.7 0.00 0.00 0.00 50 1011.0
20260505150805 26 327 1.6 6.4 0.00 0.00 0.00 48 1010.8
20260505150305 25 250 0.0 9.7 0.00 0.00 0.00 50 1011.1
20260505140240 22 274 4.8 11.3 0.00 0.00 0.00 57 1011.9
20260505130217 20 143 1.6 14.5 0.00 0.00 0.00 63 1011.5
20260505124717 20 250 0.0 4.8 0.00 0.00 0.00 65 1011.5
20260505124217 20 262 3.2 9.7 0.00 0.00 0.00 65 1011.5
20260505122717 19 314 3.2 12.9 0.00 0.00 0.00 66 1011.6
20260505122217 19 251 3.2 12.9 0.00 0.00 0.00 67 1011.6
20260505121718 18 253 1.6 11.3 0.00 0.00 0.00 67 1011.4
20260505121217 18 182 3.2 12.9 0.00 0.00 0.00 67 1011.7
20260505120718 18 219 6.4 12.9 0.00 0.00 0.00 66 1011.7
20260505120217 19 255 3.2 6.4 0.00 0.00 0.00 66 1011.7
20260505115717 18 208 3.2 6.4 0.00 0.00 0.00 66 1011.5
20260505115217 18 177 1.6 6.4 0.00 0.00 0.00 67 1011.4
20260505114704 18 247 3.2 6.4 0.00 0.00 0.00 67 1011.5
20260505114204 18 249 0.0 4.8 0.00 0.00 0.00 70 1011.7
20260505113704 17 222 1.6 9.7 0.00 0.00 0.00 70 1011.5
20260505113204 17 239 1.6 9.7 0.00 0.00 0.00 71 1011.8
20260505112705 17 219 0.0 11.3 0.00 0.00 0.00 71 1011.6
20260505112204 17 301 3.2 11.3 0.00 0.00 0.00 70 1011.8
20260505111152 17 257 3.2 9.7 0.00 0.00 0.00 72 1011.5
20260505110652 17 275 1.6 9.7 0.00 0.00 0.00 72 1011.6
20260505102153 16 214 1.6 9.7 0.00 0.00 0.00 75 1011.3
20260505101653 15 220 3.2 9.7 0.00 0.00 0.00 76 1011.4
20260505101153 15 245 1.6 11.3 0.00 0.00 0.00 77 1011.4
20260505100653 15 254 0.0 11.3 0.00 0.00 0.00 77 1011.4
20260505100153 15 256 3.2 11.3 0.00 0.00 0.00 77 1010.9
20260505095652 15 261 6.4 9.7 0.00 0.00 0.00 79 1011.0
20260505095152 15 249 0.0 4.8 0.00 0.00 0.00 79 1010.9
20260505094652 15 285 3.2 6.4 0.00 0.00 0.00 79 1010.7
20260505094152 15 196 1.6 6.4 0.00 0.00 0.00 79 1010.3
20260505093652 15 253 0.0 4.8 0.00 0.00 0.00 79 1010.5
20260505093140 15 46 1.6 4.8 0.00 0.00 0.00 78 1010.6
20260505092640 15 240 3.2 9.7 0.00 0.00 0.00 78 1010.2
20260505092140 15 171 4.8 9.7 0.00 0.00 0.00 78 1010.3
20260505091640 15 336 4.8 11.3 0.00 0.00 0.00 78 1010.5
20260505091133 15 251 0.0 11.3 0.00 0.00 0.00 77 1010.1
20260505090628 15 170 1.6 9.7 0.00 0.00 0.00 78 1010.2
20260505090127 15 213 1.6 6.4 0.00 0.00 0.00 78 1010.5
20260505085628 15 233 1.6 6.4 0.00 0.00 0.00 78 1010.6
20260505085128 14 250 0.0 4.8 0.00 0.00 0.00 78 1010.4
20260505084628 14 228 0.0 4.8 0.00 0.00 0.00 79 1010.8
20260505084115 14 232 1.6 6.4 0.00 0.00 0.00 79 1010.5
20260505083117 14 268 0.0 4.8 0.00 0.00 0.00 79 1010.7
20260505082605 14 239 0.0 4.8 0.00 0.00 0.00 79 1010.3
20260505082106 14 260 0.0 1.6 0.00 0.00 0.00 79 1010.8
20260505081104 14 222 0.0 1.6 0.00 0.00 0.00 78 1010.7
20260505080605 14 238 0.0 1.6 0.00 0.00 0.00 78 1010.6
20260505080104 14 250 0.0 4.8 0.00 0.00 0.00 77 1010.9
20260505075604 15 237 0.0 4.8 0.00 0.00 0.00 76 1010.6
20260505075104 15 207 0.0 3.2 0.00 0.00 0.00 76 1010.5
20260505074104 14 220 1.6 3.2 0.00 0.00 0.00 76 1010.6
20260505072603 15 226 0.0 3.2 0.00 0.00 0.00 75 1010.4
20260505071603 14 238 0.0 4.8 0.00 0.00 0.00 75 1010.2
20260505071103 14 251 0.0 1.6 0.00 0.00 0.00 75 1010.4
20260505070603 15 255 0.0 3.2 0.00 0.00 0.00 74 1010.5
20260505065603 15 246 0.0 4.8 0.00 0.00 0.00 74 1010.2
20260505065104 15 202 1.6 4.8 0.00 0.00 0.00 73 1010.6
20260505064604 15 263 0.0 3.2 0.00 0.00 0.00 73 1010.6
20260505064104 15 256 1.6 6.4 0.00 0.00 0.00 73 1010.7
20260505063604 15 266 0.0 6.4 0.00 0.00 0.00 73 1010.4
20260505063104 15 288 0.0 4.8 0.00 0.00 0.00 73 1010.5
20260505062604 15 249 1.6 3.2 0.00 0.00 0.00 72 1010.7
20260505062105 15 265 1.6 4.8 0.00 0.00 0.00 72 1010.6
20260505061602 15 279 1.6 3.2 0.00 0.00 0.00 72 1010.5
20260505061103 15 284 0.0 3.2 0.00 0.00 0.00 72 1010.6
20260505060603 15 285 1.6 6.4 0.00 0.00 0.00 72 1010.6
20260505060103 14 70 0.0 6.4 0.00 0.00 0.00 73 1010.6
20260505055604 14 177 1.6 4.8 0.00 0.00 0.00 74 1010.7
20260505055104 14 265 0.0 3.2 0.00 0.00 0.00 74 1010.5
20260505054551 14 246 0.0 3.2 0.00 0.00 0.00 74 1010.5
20260505054051 14 238 0.0 0.0 0.00 0.00 0.00 74 1010.9
20260505053551 14 250 0.0 1.6 0.00 0.00 0.00 74 1010.7
20260505053050 14 257 0.0 1.6 0.00 0.00 0.00 73 1010.7
20260505052552 14 240 0.0 1.6 0.00 0.00 0.00 73 1010.7
20260505052052 15 256 0.0 1.6 0.00 0.00 0.00 72 1010.6
20260505051551 15 243 0.0 3.2 0.00 0.00 0.00 71 1010.6
20260505051051 15 263 0.0 3.2 0.00 0.00 0.00 70 1010.7
20260505050551 15 206 1.6 3.2 0.00 0.00 0.00 70 1010.9
20260505041552 15 103 1.6 3.2 0.00 0.00 0.00 67 1011.0
20260505041052 15 205 0.0 4.8 0.00 0.00 0.00 68 1011.1
20260505040552 15 253 0.0 4.8 0.00 0.00 0.00 67 1011.0
20260505040052 15 251 0.0 3.2 0.00 0.00 0.00 67 1010.9
20260505035051 16 296 0.0 4.8 0.00 0.00 0.00 66 1011.3
20260505034552 16 185 3.2 4.8 0.00 0.00 0.00 66 1010.9
20260505034050 16 242 0.0 1.6 0.00 0.00 0.00 66 1011.1
20260505033552 16 272 0.0 1.6 0.00 0.00 0.00 66 1011.2
20260505033052 16 288 0.0 3.2 0.00 0.00 0.00 65 1011.1
20260505032551 16 259 0.0 3.2 0.00 0.00 0.00 65 1011.1
20260505032051 16 58 1.6 3.2 0.00 0.00 0.00 64 1011.4
20260505031551 16 145 1.6 4.8 0.00 0.00 0.00 63 1011.3
20260505031051 16 298 1.6 4.8 0.00 0.00 0.00 63 1011.0
20260505030552 16 263 0.0 4.8 0.00 0.00 0.00 63 1011.3
20260505030051 16 224 0.0 4.8 0.00 0.00 0.00 62 1011.5
20260505025552 16 183 1.6 4.8 0.00 0.00 0.00 62 1011.2
20260505024551 16 131 0.0 3.2 0.00 0.00 0.00 61 1011.2
20260505024051 16 236 0.0 4.8 0.00 0.00 0.00 60 1011.4
20260505023551 16 179 3.2 4.8 0.00 0.00 0.00 60 1011.4
20260505023051 16 238 0.0 1.6 0.00 0.00 0.00 60 1011.5
20260505021051 17 247 0.0 4.8 0.00 0.00 0.00 58 1011.5
20260505020551 17 130 0.0 4.8 0.00 0.00 0.00 58 1011.6
20260505020051 17 139 0.0 3.2 0.00 0.00 0.00 58 1011.5
20260505015551 17 40 3.2 3.2 0.00 0.00 0.00 57 1011.7
20260505015051 17 340 1.6 3.2 0.00 0.00 0.00 57 1011.6
20260505014552 17 237 0.0 4.8 0.00 0.00 0.00 56 1011.0
20260505014050 17 196 3.2 4.8 0.00 0.00 0.00 55 1011.4
20260505013551 17 34 0.0 4.8 0.00 0.00 0.00 55 1011.5
20260505013051 18 60 1.6 4.8 0.00 0.00 0.00 55 1011.4
20260505012551 18 126 1.6 3.2 0.00 0.00 0.00 54 1011.2
20260505012051 18 259 0.0 6.4 0.00 0.00 0.00 54 1011.0
20260505011551 18 128 1.6 6.4 0.00 0.00 0.00 53 1011.1
20260505010551 18 153 0.0 6.4 0.00 0.00 0.00 51 1011.0
20260505010051 18 223 1.6 1.6 0.00 0.00 0.00 49 1010.7
20260505005551 18 234 0.0 3.2 0.00 0.00 0.00 48 1010.9
20260505005051 18 177 1.6 3.2 0.00 0.00 0.00 47 1010.6
20260505004551 18 230 0.0 1.6 0.00 0.00 0.00 48 1010.6
20260505004051 18 218 0.0 1.6 0.00 0.00 0.00 47 1010.4
20260505003533 19 244 0.0 1.6 0.00 0.00 0.00 45 1010.4
20260505003027 19 229 0.0 4.8 0.00 0.00 0.00 44 1010.5
20260505002027 19 253 0.0 3.2 0.00 0.00 0.00 44 1010.4
20260505001527 20 243 0.0 3.2 0.00 0.00 0.00 43 1010.1
20260505001027 20 175 1.6 6.4 0.00 0.00 0.00 43 1010.2
20260505000527 20 255 0.0 6.4 0.00 0.00 0.00 42 1010.2
20260505000027 20 255 1.6 6.4 0.00 0.00 0.00 42 1010.0
20260504235527 20 257 1.6 4.8 0.00 0.00 0.00 42 1009.9
20260504235028 20 231 0.0 4.8 0.00 0.00 0.00 41 1009.7
20260504234527 21 283 1.6 9.7 0.00 0.00 0.00 40 1009.9
20260504233527 21 243 1.6 9.7 0.00 0.00 0.00 40 1009.8
20260504233027 21 104 0.0 9.7 0.00 0.00 0.00 40 1009.5
20260504232515 21 283 1.6 9.7 0.00 0.00 0.00 39 1009.7
20260504232015 21 266 3.2 12.9 0.00 0.00 0.00 39 1009.4
20260504231517 21 247 3.2 12.9 0.00 0.00 0.00 38 1009.6
20260504231005 22 187 1.6 11.3 0.00 0.00 0.00 38 1009.6
20260504230505 22 95 1.6 11.3 0.00 0.00 0.00 38 1009.5
20260504230005 22 298 0.0 11.3 0.00 0.00 0.00 38 1009.6
20260504225505 22 243 0.0 11.3 0.00 0.00 0.00 37 1009.3
20260504225004 22 244 1.6 11.3 0.00 0.00 0.00 37 1009.3
20260504224504 22 292 3.2 9.7 0.00 0.00 0.00 37 1009.4
20260504223503 22 255 1.6 11.3 0.00 0.00 0.00 36 1009.5
20260504223005 23 223 3.2 6.4 0.00 0.00 0.00 36 1009.3
20260504222503 23 295 1.6 9.7 0.00 0.00 0.00 36 1009.4
20260504222003 23 50 4.8 9.7 0.00 0.00 0.00 36 1009.5
20260504221003 23 244 8.0 12.9 0.00 0.00 0.00 35 1009.5
20260504220504 23 286 3.2 12.9 0.00 0.00 0.00 35 1009.5
20260504220005 23 309 3.2 12.9 0.00 0.00 0.00 35 1009.4
20260504215003 23 278 1.6 12.9 0.00 0.00 0.00 35 1009.5
20260504214504 23 273 3.2 12.9 0.00 0.00 0.00 35 1009.6
20260504214005 23 168 3.2 20.9 0.00 0.00 0.00 34 1009.7
20260504213503 23 218 1.6 20.9 0.00 0.00 0.00 35 1009.6
20260504213003 23 60 1.6 22.5 0.00 0.00 0.00 35 1009.7
20260504212504 23 321 1.6 22.5 0.00 0.00 0.00 34 1009.8
20260504211004 24 230 3.2 9.7 0.00 0.00 0.00 35 1009.9
20260504210505 23 196 1.6 9.7 0.00 0.00 0.00 35 1009.9
20260504210004 23 289 1.6 12.9 0.00 0.00 0.00 35 1009.8
20260504205505 23 208 4.8 12.9 0.00 0.00 0.00 34 1009.7
20260504205004 23 163 3.2 24.1 0.00 0.00 0.00 35 1009.5
20260504204504 24 220 9.7 24.1 0.00 0.00 0.00 34 1009.6
20260504204004 23 216 1.6 14.5 0.00 0.00 0.00 34 1009.9
20260504203004 24 263 1.6 11.3 0.00 0.00 0.00 35 1009.9
20260504202004 23 197 3.2 11.3 0.00 0.00 0.00 34 1009.8
20260504201504 23 277 6.4 24.1 0.00 0.00 0.00 35 1009.6
20260504201004 24 244 11.3 24.1 0.00 0.00 0.00 34 1010.0
20260504200503 24 354 6.4 12.9 0.00 0.00 0.00 35 1010.0
20260504195504 23 253 1.6 9.7 0.00 0.00 0.00 36 1010.1
20260504195004 23 322 1.6 11.3 0.00 0.00 0.00 36 1009.8
20260504194504 23 206 3.2 14.5 0.00 0.00 0.00 35 1010.2
20260504194003 23 258 6.4 14.5 0.00 0.00 0.00 35 1010.0
20260504193502 24 176 8.0 14.5 0.00 0.00 0.00 35 1010.1
20260504193002 23 251 0.0 14.5 0.00 0.00 0.00 36 1010.0
20260504191502 23 280 6.4 16.1 0.00 0.00 0.00 35 1010.3
20260504185502 23 280 8.0 14.5 0.00 0.00 0.00 35 1010.6
20260504185002 23 259 3.2 14.5 0.00 0.00 0.00 36 1010.8